Regional Weather Roundup
Issued by NWS Green Bay, WI

Home | Current Version | Previous Version | Graphics & Text | Print | Product List | Glossary Off
Versions: 1 2 3 4 5 6 7 8 9 10 11 12 13 14 15 16 17 18 19 20 21 22 23 24 25 26 27 28 29 30 31 32 33 34 35 36 37 38 39 40 41 42 43 44 45 46 47 48 49 50

000
ASUS43 KGRB 011210
RWRGRB

NORTH-CENTRAL AND NORTHEAST WISCONSIN REGIONAL WEATHER ROUNDUP
NATIONAL WEATHER SERVICE GREEN BAY WI
600 AM CST SUN FEB 01 2015

WIZ005-009-010>012-018-019-011300-
NORTH CENTRAL WISCONSIN

CITY           SKY/WX    TMP DP  RH WIND       PRES   REMARKS
IRONWOOD       MOCLDY     1   0  92 E3        30.28S
MANITOWISH WTR CLOUDY     3  -3  77 NE8       30.24S WCI -11
ARBOR VITAE    CLOUDY     5  -1  77 NE7       30.22F WCI  -7
EAGLE RIVER    CLOUDY     4  -2  75 NE9       30.22F WCI -10
LAND O LAKES   CLOUDY     4  -1  82 NE6       30.25S WCI  -7
RHINELANDER    CLOUDY     5  -1  76 NE8       30.20F WCI  -8
PHILLIPS       CLOUDY     4  -2  75 NE9       30.22S WCI -10
ANTIGO         CLOUDY     8   2  79 NE16      30.19F WCI -10
TOMAHAWK       CLOUDY     6  -1  74 NE7       30.21F WCI  -6
MERRILL        CLOUDY     8   1  73 NE9G17    30.20F WCI  -5
$$

WIZ013-073-011300-
NORTHEAST WISCONSIN

CITY           SKY/WX    TMP DP  RH WIND       PRES   REMARKS
IRON MOUNTAIN  CLOUDY     8   2  76 N6        30.25F WCI  -2
MARINETTE      CLOUDY    12   7  79 NE13      30.27F WCI  -3
OCONTO         CLOUDY    12   6  76 MISG      30.26F
$$

WIZ017-030-035>037-045-011300-
CENTRAL WISCONSIN

CITY           SKY/WX    TMP DP  RH WIND       PRES   REMARKS
MEDFORD        CLOUDY     8   1  72 NE16G23   30.17S WCI -10
WAUSAU         CLOUDY    10   2  69 NE12G17   30.18F WCI  -5
MOSINEE        LGT SNOW  10   7  85 NE16G23   30.19F WCI  -7
MARSHFIELD     LGT SNOW  11   6  81 NE14      30.15F WCI  -5
WISC RAPIDS    LGT SNOW  12   5  73 E14G20    30.18F WCI  -3
STEVENS POINT  LGT SNOW   9   5  82 NE13G20   30.18F WCI  -6
WAUPACA        LGT SNOW  14   9  79 N12G21    30.21S WCI   0
SHAWANO        CLOUDY    14   6  68 NE14G20   30.25F WCI   0
CLINTONVILLE   FLURRIES  14   5  67 NE14G20   30.23S WCI  -1
$$

WIZ038-039-048-051-011300-
FOX VALLEY

CITY           SKY/WX    TMP DP  RH WIND       PRES   REMARKS
NWS GREEN BAY  CLOUDY    14   6  70 NE26G35   30.23F WCI  -6
APPLETON       LGT SNOW  12   7  79 NE17G23   30.19F WCI  -5
OSHKOSH        LGT SNOW  14   9  80 NE21G29   30.17S WCI  -4
FOND DU LAC    LGT SNOW  14  10  84 NE15      30.17S FOG     WCI  -1
$$

WIZ022-050-052-011300-
EAST CENTRAL WISCONSIN

CITY           SKY/WX    TMP DP  RH WIND       PRES   REMARKS
STURGEON BAY   CLOUDY    12   5  73 N13       30.26S WCI  -3
MANITOWOC      LGT SNOW  17  15  92 N8        30.20F VSB 1   WCI   7
SHEBOYGAN      LGT SNOW  18  14  84 N10       30.16F VSB 3/4 WCI   6
$$

LMZ563-521-522-541>543-011300-
LAKESHORE

STATION/POSITION TIME  TEMP    WIND        PRES    VSBY  WAVE
                       AIR SEA DIR/SP/G                  HT/PER
                 (UTC) (F)     (DEG/KT/KT) (MB)    (MI)  (FT/S)
SHEBOYGAN LKSHOR 1200   22      60/ 26/ 28 1022.4F
KEWAUNEE LKSHORE 1200   16      10/ 12/ 17 1022.4S
NORTHPORT PIER   1200   13      20/ 18/ 24 1026.1S
SISTER BAY LKSHO 1100   12      20/ 12/ 18   N/A
CHAMBERS ISLAND  1200   11      20/ 23/ 26 1025.4R
MENOMINEE LKSHOR 1200   13      30/ 24     1025.8F
$$



USA.gov is the U.S. government's official web portal to all federal, state and local government web resources and services.